Location: Burgberg
(50.1428°N, 11.0671°E)
Time: 10:28:55
(UTC+00:00)

Lacrosse 4 Rocket - Pass Details

Date: 26 January 2020
Orbit: 538 x 620 km, 68.0° (Epoch: 18 February)

Event Time Altitude Azimuth Distance (km) Brightness Sun altitude
Exits shadow 06:02:24 - 335° (NNW) 2,586 4.3 -9.1°
Reaches altitude 10° 06:04:57 10° 357° (N) 1,937 3.9 -8.7°
Maximum altitude 06:07:11 14° 28° (NNE) 1,716 4.0 -8.3°
Drops below altitude 10° 06:09:26 10° 59° (ENE) 1,957 4.7 -8.0°
Sets 06:12:48 0° 86° (E) 2,874 6.4 -7.5°
